EJU63AG LFMN-LEPA

Flight info

Callsign EJU63AG
Flight time 1h 6m
Altitude 38000
Route EPOLO DCT SOFFY DCT VATIR N852 VERSO L129 LUNIK
Aircraft A319/M-SDE2E3FGIJ1RWXYZ/LB1

Departure

Time 2026-04-30 20:23
Airport Nice-Côte d'Azur Airport (LFMN)

Arrival

Time 2026-04-30 21:29
Airport Palma de Mallorca Airport (LEPA)
Time Latitude Longitude Altitude Speed Heading
2026-04-30 19:58 43.66169 7.20655 21 ft 0 kts 261°
2026-04-30 20:03 43.66169 7.20656 21 ft 0 kts 261°
2026-04-30 20:15 43.66170 7.20665 21 ft 2 kts 258°
2026-04-30 20:15 43.66173 7.20687 25 ft 2 kts 259°
2026-04-30 20:15 43.66177 7.20709 23 ft 2 kts 255°
2026-04-30 20:15 43.66182 7.20731 22 ft 2 kts 249°
2026-04-30 20:16 43.66188 7.20751 23 ft 2 kts 235°
2026-04-30 20:16 43.66199 7.20768 24 ft 2 kts 195°
2026-04-30 20:16 43.66213 7.20771 23 ft 1 kts 171°
2026-04-30 20:16 43.66215 7.20770 23 ft 0 kts 171°
2026-04-30 20:18 43.66208 7.20772 24 ft 3 kts 171°
2026-04-30 20:18 43.66165 7.20782 21 ft 9 kts 171°
2026-04-30 20:18 43.66084 7.20800 21 ft 15 kts 171°
2026-04-30 20:19 43.65964 7.20826 21 ft 20 kts 171°
2026-04-30 20:19 43.65863 7.20849 23 ft 24 kts 171°
2026-04-30 20:19 43.65640 7.20898 21 ft 25 kts 171°
2026-04-30 20:19 43.65467 7.20937 22 ft 25 kts 171°
2026-04-30 20:20 43.65327 7.20928 22 ft 18 kts 221°
2026-04-30 20:20 43.65247 7.20814 21 ft 17 kts 225°
2026-04-30 20:20 43.65163 7.20698 21 ft 18 kts 225°
2026-04-30 20:20 43.65065 7.20563 21 ft 21 kts 225°
2026-04-30 20:21 43.64957 7.20415 22 ft 22 kts 225°
2026-04-30 20:21 43.64847 7.20263 22 ft 23 kts 225°
2026-04-30 20:21 43.64740 7.20185 22 ft 16 kts 160°
2026-04-30 20:21 43.64702 7.20288 24 ft 10 kts 60°
2026-04-30 20:22 43.64735 7.20333 24 ft 7 kts 44°
2026-04-30 20:22 43.64858 7.20503 24 ft 62 kts 45°
2026-04-30 20:22 43.65356 7.21187 23 ft 136 kts 45°
2026-04-30 20:22 43.66127 7.22239 336 ft 163 kts 44°
2026-04-30 20:23 43.66607 7.23030 826 ft 164 kts 60°
2026-04-30 20:23 43.66544 7.25163 1507 ft 188 kts 121°
2026-04-30 20:23 43.65930 7.26066 1797 ft 204 kts 139°
2026-04-30 20:23 43.64806 7.27422 2357 ft 221 kts 135°
2026-04-30 20:24 43.63715 7.28886 3443 ft 217 kts 133°
2026-04-30 20:24 43.62648 7.30356 4422 ft 218 kts 133°
2026-04-30 20:24 43.61561 7.31834 5336 ft 222 kts 137°
2026-04-30 20:24 43.60158 7.32839 6156 ft 232 kts 166°
2026-04-30 20:25 43.57064 7.31703 7751 ft 245 kts 214°
2026-04-30 20:25 43.55627 7.30363 8645 ft 247 kts 215°
2026-04-30 20:26 43.52744 7.27700 10444 ft 252 kts 215°
2026-04-30 20:26 43.49555 7.24773 11248 ft 300 kts 215°
2026-04-30 20:26 43.47748 7.23124 11583 ft 324 kts 214°
2026-04-30 20:27 43.43863 7.19597 13020 ft 340 kts 215°
2026-04-30 20:27 43.39864 7.15966 14599 ft 348 kts 214°
2026-04-30 20:28 43.35777 7.12254 16071 ft 356 kts 216°
2026-04-30 20:28 43.31590 7.08459 17429 ft 366 kts 216°
2026-04-30 20:29 43.27929 7.03679 18751 ft 367 kts 245°
2026-04-30 20:30 43.26181 6.93510 20657 ft 370 kts 262°
2026-04-30 20:30 43.24821 6.82932 22514 ft 380 kts 262°
2026-04-30 20:31 43.23391 6.72078 24232 ft 391 kts 261°
2026-04-30 20:32 43.21931 6.61043 25848 ft 394 kts 261°
2026-04-30 20:32 43.20937 6.53547 26816 ft 399 kts 262°
2026-04-30 20:33 43.20436 6.49793 27318 ft 401 kts 262°
2026-04-30 20:33 43.19425 6.42238 28259 ft 405 kts 261°
2026-04-30 20:33 43.18916 6.38426 28741 ft 408 kts 262°
2026-04-30 20:34 43.17887 6.30746 29638 ft 412 kts 262°
2026-04-30 20:34 43.16832 6.22987 30482 ft 417 kts 262°
2026-04-30 20:35 43.16296 6.19074 30858 ft 418 kts 262°
2026-04-30 20:35 43.15758 6.15160 31254 ft 419 kts 262°
2026-04-30 20:35 43.14678 6.07296 32049 ft 420 kts 262°
2026-04-30 20:36 43.14140 6.03386 32591 ft 417 kts 262°
2026-04-30 20:36 43.13606 5.99507 33147 ft 413 kts 262°
2026-04-30 20:36 43.12543 5.91831 34275 ft 407 kts 262°
2026-04-30 20:37 43.12017 5.88038 34736 ft 404 kts 262°
2026-04-30 20:37 43.11494 5.84263 35144 ft 403 kts 262°
2026-04-30 20:37 43.10969 5.80505 35541 ft 402 kts 262°
2026-04-30 20:37 43.10444 5.76764 35923 ft 400 kts 262°
2026-04-30 20:38 43.09919 5.73025 36295 ft 399 kts 262°
2026-04-30 20:38 43.09394 5.69303 36647 ft 398 kts 262°
2026-04-30 20:38 43.08871 5.65596 37011 ft 396 kts 262°
2026-04-30 20:39 43.07831 5.58246 37766 ft 392 kts 262°
2026-04-30 20:39 43.07312 5.54584 38101 ft 391 kts 262°
2026-04-30 20:40 43.05751 5.43698 38197 ft 387 kts 262°
2026-04-30 20:40 43.04718 5.36485 38192 ft 386 kts 261°
2026-04-30 20:41 43.03141 5.25629 38201 ft 387 kts 261°
2026-04-30 20:41 43.01484 5.18636 38199 ft 393 kts 244°
2026-04-30 20:42 42.97954 5.12837 38195 ft 403 kts 228°
2026-04-30 20:43 42.91803 5.04996 38188 ft 403 kts 229°
2026-04-30 20:43 42.87704 4.99764 38184 ft 403 kts 229°
2026-04-30 20:44 42.81549 4.91950 38185 ft 403 kts 228°
2026-04-30 20:45 42.73335 4.81552 38198 ft 403 kts 228°
2026-04-30 20:45 42.69230 4.76359 38200 ft 403 kts 228°
2026-04-30 20:46 42.61000 4.66021 38200 ft 403 kts 228°
2026-04-30 20:47 42.54832 4.58277 38197 ft 403 kts 228°
2026-04-30 20:48 42.48663 4.50555 38194 ft 402 kts 227°
2026-04-30 20:48 42.44528 4.45395 38200 ft 401 kts 227°
2026-04-30 20:49 42.40430 4.40283 38193 ft 400 kts 227°
2026-04-30 20:50 42.34280 4.32643 38193 ft 400 kts 227°
2026-04-30 20:50 42.30176 4.27559 38176 ft 400 kts 227°
2026-04-30 20:51 42.26068 4.22480 38178 ft 400 kts 227°
2026-04-30 20:51 42.21579 4.18000 38165 ft 412 kts 207°
2026-04-30 20:51 42.18863 4.16688 38168 ft 415 kts 204°
2026-04-30 20:52 42.13386 4.14197 38173 ft 416 kts 204°
2026-04-30 20:53 42.05154 4.10489 38170 ft 416 kts 204°
2026-04-30 20:53 41.99670 4.08007 38173 ft 416 kts 204°
2026-04-30 20:54 41.91451 4.04288 38144 ft 416 kts 204°
2026-04-30 20:55 41.83227 4.00569 38154 ft 416 kts 204°
2026-04-30 20:55 41.77740 3.98097 38155 ft 416 kts 204°
2026-04-30 20:56 41.70396 3.94800 38144 ft 416 kts 203°
2026-04-30 20:57 41.62162 3.91116 38150 ft 416 kts 203°
2026-04-30 20:57 41.56672 3.88666 38153 ft 416 kts 203°
2026-04-30 20:58 41.48438 3.84993 38142 ft 416 kts 203°
2026-04-30 20:58 41.42951 3.82547 38145 ft 416 kts 203°
2026-04-30 20:59 41.34712 3.78889 38152 ft 416 kts 202°
2026-04-30 21:00 41.23695 3.74031 38150 ft 415 kts 202°
2026-04-30 21:01 41.15509 3.70415 38082 ft 414 kts 202°
2026-04-30 21:01 41.10007 3.67987 36846 ft 415 kts 202°
2026-04-30 21:02 41.07264 3.66784 36166 ft 416 kts 202°
2026-04-30 21:02 41.04523 3.65582 35602 ft 414 kts 202°
2026-04-30 21:02 41.01800 3.64389 35139 ft 410 kts 202°
2026-04-30 21:02 40.99110 3.63209 34682 ft 406 kts 202°
2026-04-30 21:03 40.96438 3.62038 34223 ft 402 kts 202°
2026-04-30 21:03 40.93793 3.60876 33715 ft 399 kts 202°
2026-04-30 21:03 40.91170 3.59725 33205 ft 396 kts 202°
2026-04-30 21:03 40.88564 3.58589 32707 ft 393 kts 202°
2026-04-30 21:04 40.85975 3.57464 32218 ft 390 kts 202°
2026-04-30 21:04 40.83413 3.56352 31735 ft 386 kts 202°
2026-04-30 21:04 40.78347 3.54145 30825 ft 381 kts 202°
2026-04-30 21:05 40.75815 3.53041 29909 ft 389 kts 202°
2026-04-30 21:05 40.73219 3.51904 28998 ft 395 kts 202°
2026-04-30 21:05 40.70612 3.50764 28320 ft 394 kts 202°
2026-04-30 21:05 40.68015 3.49637 27733 ft 392 kts 202°
2026-04-30 21:06 40.65425 3.48521 27174 ft 390 kts 202°
2026-04-30 21:06 40.62857 3.47416 26639 ft 388 kts 202°
2026-04-30 21:06 40.60302 3.46313 26125 ft 385 kts 202°
2026-04-30 21:06 40.57761 3.45214 25632 ft 383 kts 202°
2026-04-30 21:07 40.55237 3.44123 25160 ft 381 kts 202°
2026-04-30 21:07 40.52725 3.43039 24689 ft 379 kts 202°
2026-04-30 21:07 40.50225 3.41961 24225 ft 377 kts 202°
2026-04-30 21:07 40.47706 3.40872 23753 ft 375 kts 202°
2026-04-30 21:08 40.45215 3.39869 23212 ft 375 kts 197°
2026-04-30 21:08 40.42630 3.39388 22705 ft 377 kts 186°
2026-04-30 21:08 40.40009 3.39464 22200 ft 376 kts 180°
2026-04-30 21:08 40.37374 3.39620 21441 ft 381 kts 181°
2026-04-30 21:09 40.34723 3.39772 20888 ft 380 kts 181°
2026-04-30 21:09 40.32092 3.39922 20388 ft 378 kts 181°
2026-04-30 21:09 40.29475 3.40073 19907 ft 375 kts 181°
2026-04-30 21:09 40.26883 3.40222 19433 ft 372 kts 181°
2026-04-30 21:10 40.24304 3.40372 18967 ft 369 kts 181°
2026-04-30 21:10 40.21746 3.40520 18528 ft 367 kts 181°
2026-04-30 21:10 40.19193 3.40664 18259 ft 367 kts 181°
2026-04-30 21:10 40.16650 3.40805 17994 ft 365 kts 181°
2026-04-30 21:11 40.14115 3.40947 17724 ft 364 kts 181°
2026-04-30 21:11 40.11587 3.41090 17462 ft 363 kts 181°
2026-04-30 21:11 40.09071 3.41226 17203 ft 361 kts 182°
2026-04-30 21:11 40.06613 3.40845 16941 ft 353 kts 198°
2026-04-30 21:12 40.04260 3.39964 16690 ft 351 kts 199°
2026-04-30 21:12 40.01916 3.39071 16431 ft 350 kts 199°
2026-04-30 21:12 39.99584 3.38175 16188 ft 349 kts 199°
2026-04-30 21:12 39.97262 3.37280 15937 ft 347 kts 199°
2026-04-30 21:13 39.94950 3.36390 15685 ft 346 kts 199°
2026-04-30 21:13 39.92615 3.35491 15436 ft 345 kts 199°
2026-04-30 21:13 39.90319 3.34611 15192 ft 343 kts 199°
2026-04-30 21:13 39.87996 3.33722 14954 ft 356 kts 199°
2026-04-30 21:14 39.85612 3.32808 14429 ft 358 kts 199°
2026-04-30 21:14 39.83214 3.31895 14175 ft 360 kts 199°
2026-04-30 21:14 39.80810 3.30985 14039 ft 358 kts 199°
2026-04-30 21:14 39.78431 3.30083 13469 ft 355 kts 199°
2026-04-30 21:15 39.76069 3.29183 12869 ft 353 kts 199°
2026-04-30 21:15 39.73711 3.28282 12517 ft 353 kts 199°
2026-04-30 21:15 39.71360 3.27387 12191 ft 352 kts 199°
2026-04-30 21:15 39.69014 3.26498 11866 ft 351 kts 199°
2026-04-30 21:16 39.66675 3.25612 11535 ft 348 kts 199°
2026-04-30 21:16 39.64405 3.24621 10991 ft 342 kts 207°
2026-04-30 21:16 39.62456 3.22932 10495 ft 333 kts 225°
2026-04-30 21:16 39.61040 3.20673 10372 ft 315 kts 240°
2026-04-30 21:17 39.60055 3.18209 10253 ft 301 kts 244°
2026-04-30 21:17 39.59134 3.15837 10133 ft 288 kts 244°
2026-04-30 21:17 39.58247 3.13559 9962 ft 279 kts 244°
2026-04-30 21:17 39.57379 3.11334 9610 ft 275 kts 244°
2026-04-30 21:18 39.56515 3.09121 9198 ft 275 kts 244°
2026-04-30 21:18 39.55656 3.06912 8766 ft 275 kts 244°
2026-04-30 21:18 39.54812 3.04741 8342 ft 275 kts 244°
2026-04-30 21:18 39.53948 3.02525 7885 ft 276 kts 244°
2026-04-30 21:19 39.53084 3.00308 7468 ft 275 kts 244°
2026-04-30 21:19 39.52226 2.98108 7051 ft 274 kts 245°
2026-04-30 21:19 39.51369 2.95910 6625 ft 270 kts 245°
2026-04-30 21:19 39.50536 2.93786 6228 ft 259 kts 245°
2026-04-30 21:20 39.49737 2.91743 5855 ft 249 kts 245°
2026-04-30 21:20 39.48969 2.89778 5477 ft 240 kts 245°
2026-04-30 21:20 39.48221 2.87861 5119 ft 238 kts 244°
2026-04-30 21:20 39.47470 2.85941 4867 ft 234 kts 245°
2026-04-30 21:21 39.46733 2.84085 4617 ft 232 kts 244°
2026-04-30 21:21 39.45998 2.82221 4340 ft 232 kts 244°
2026-04-30 21:21 39.44559 2.78522 3655 ft 234 kts 244°
2026-04-30 21:22 39.43842 2.76633 3313 ft 234 kts 244°
2026-04-30 21:22 39.41731 2.71019 3010 ft 230 kts 244°
2026-04-30 21:23 39.41031 2.69154 3007 ft 230 kts 244°
2026-04-30 21:23 39.40330 2.67288 3009 ft 231 kts 244°
2026-04-30 21:23 39.39334 2.63457 3002 ft 217 kts 279°
2026-04-30 21:24 39.39898 2.61728 2793 ft 208 kts 315°
2026-04-30 21:24 39.41014 2.60591 2592 ft 202 kts 330°
2026-04-30 21:24 39.42192 2.59643 2461 ft 196 kts 332°
2026-04-30 21:24 39.43375 2.58865 2310 ft 187 kts 352°
2026-04-30 21:25 39.45747 2.59565 2046 ft 168 kts 31°
2026-04-30 21:25 39.46757 2.60257 1994 ft 161 kts 32°
2026-04-30 21:25 39.47738 2.60950 1796 ft 160 kts 32°
2026-04-30 21:26 39.49676 2.62318 1383 ft 158 kts 32°
2026-04-30 21:26 39.50639 2.63006 1257 ft 158 kts 33°
2026-04-30 21:27 39.51912 2.65164 1031 ft 137 kts 61°
2026-04-30 21:27 39.52389 2.66166 897 ft 128 kts 62°
2026-04-30 21:27 39.52851 2.67137 741 ft 125 kts 59°
2026-04-30 21:28 39.53762 2.69029 470 ft 122 kts 60°
2026-04-30 21:28 39.54206 2.69975 260 ft 123 kts 60°
2026-04-30 21:28 39.54936 2.71525 36 ft 114 kts 62°
2026-04-30 21:29 39.55269 2.72235 30 ft 46 kts 58°
2026-04-30 21:29 39.55174 2.72423 30 ft 0 kts 146°
2026-04-30 21:30 39.55153 2.72453 30 ft 7 kts 123°
2026-04-30 21:31 39.54991 2.72613 30 ft 4 kts 150°
2026-04-30 21:31 39.54964 2.72633 30 ft 0 kts 148°